User: anonymous   Login
Location: Unspecified
(0.0000°N, 0.0000°E)
Time: 06:51:43
(UTC+00:00)
Language:

AISAT - Orbit

View from above orbital plane
View from above orbital plane
View from above satellite
View from above satellite

Ground track
Ground track

The orbit data is extracted from the following two-line orbital elements,

1 40054U 14034B   17087.86809452 +.00000800 +00000-0 +12116-3 0  9992
2 40054 098.1853 186.3092 0011683 305.4776 054.5343 14.76983933147862
Epoch (UTC): 28 March 2017 20:50:03
Eccentricity: 0.0011683
inclination: 98.1853°
perigee height: 630 km
apogee height: 647 km
right ascension of ascending node: 186.3092°
argument of perigee: 305.4776°
revolutions per day: 14.76983933
mean anomaly at epoch: 54.5343°
orbit number at epoch: 14786

The dashed part of the orbit path shows where the satellite is in the earth's shadow,  

DLR